www.pogodaiklimat.ru

Погода и климат >> Архив погоды >> Россия >> Адыгея >> Майкоп


ПОГОДА в Майкопе

АРХИВ ПОГОДЫ в Майкопе

Время (UTC), дата Ветер
(напр.,м/с)
 
Видим.   Явления Облачность Т
(С)
Тd
(С)
f
(%)
Тe
(С)
Тes
(С)
Комфортность P
(гПа)
Po
(гПа)
Тmin
(С)
Tmax
(С)
R
(мм)
R24
(мм)
S
(см)
09 17.03 В 3 20 км 10/5 1000 м
[Sc Ac As]
+6.9 +3.5 79 +4 +5 по сезону 1010.9 984.4
12 17.03 Ю 1 20 км 10/8 1000 м
[Sc Ac As]
+9.3 +3.6 68 +9 +9 тепло 1011.6 985.3
15 17.03 ЮЗ 4
{12}
20 км 10/8 1000 м
[Sc Ac As]
+6.0 +1.7 74 +2 +2 по сезону 1015.4 988.7 +10.7 4
18 17.03 Ю 4 20 км ясно +4.8 +0.6 74 +1 +1 по сезону 1018.1 991.2
21 17.03 Ю 2 20 км 3/0
[Ac trans]
+3.8 +0.3 78 +1 +1 по сезону 1019.2 992.2
00 18.03 Ю 2 20 км 3/0
[Ac trans Ci sp]
+3.9 +0.5 78 +1 +1 по сезону 1020.2 993.1
03 18.03 Ю 1 20 км 8/3 1000 м
[Sc Ac trans Ci sp]
+2.9 +0.4 84 +1 +1 по сезону 1021.5 994.3 +2.9
06 18.03 З 2 20 км 8/3 600 м
[Sc Ac trans]
+7.8 +1.4 64 +6 +8 тепло 1023.0 996.2 +2.0
09 18.03 З 1 20 км в посл. час ливневой дождь 8/3 600 м
[Cb cap Ac trans]
+8.4 +2.1 65 +8 +13 тепло 1023.5 996.8
12 18.03 СЗ 2 20 км {ливн. осадки} 8/4 1000 м
[Sc Ac trans]
+11.2 -0.6 44 +10 +13 тепло 1023.3 996.8
15 18.03 С 2 20 км 6/3 1000 м
[Sc Ac trans]
+8.9 +0.9 57 +8 +8 тепло 1024.2 997.5 +11.4 0.1
18 18.03 В 1 20 км 3/0
[Ac trans]
+5.3 +2.0 79 +4 +4 тепло 1025.4 998.3
21 18.03 В 2 20 км ясно +4.3 +1.2 80 +2 +2 по сезону 1025.4 998.2
00 19.03 В 1 20 км ясно +1.8 +0.4 90 0 0 по сезону 1025.7 998.3
03 19.03 ЮВ 1 20 км ясно +1.0 -0.5 90 -1 -1 по сезону 1025.5 998.0 +0.8
06 19.03 СВ 1 20 км ясно +7.1 +0.9 65 +6 +12 тепло 1024.8 997.9
09 19.03 В 4 20 км ясно +13.9 +0.6 40 +13 +20 тепло 1023.2 997.0
12 19.03 СВ 6 20 км ясно +15.5 +1.3 38 +14 +17 тепло 1022.2 996.2
15 19.03 СВ 4 20 км ясно +12.6 +2.5 50 +11 +11 тепло 1022.1 995.8 +15.7
18 19.03 В 2 20 км ясно +8.5 +2.2 65 +7 +7 тепло 1022.8 996.1
21 19.03 СВ 2 20 км ясно +4.7 +2.0 83 +2 +2 по сезону 1022.6 995.6
00 20.03 СВ 2 20 км ясно +2.0 +1.1 94 -1 -1 по сезону 1022.8 995.5
03 20.03 В 1 20 км ясно +1.4 +0.1 91 -1 -1 по сезону 1022.9 995.5 +0.8
06 20.03 З 2 20 км ясно +5.0 +2.1 81 +2 +7 тепло 1022.6 995.6
09 20.03 СВ 3 20 км ясно +12.6 +3.5 54 +11 +21 опасность
простуды
1020.9 994.7
12 20.03 СВ 4 20 км ясно +16.7 +3.1 40 +16 +21 тепло 1019.5 993.6
15 20.03 СВ 4 20 км ясно +14.2 +1.5 42 +13 +13 тепло 1019.8 993.7 +16.9
18 20.03 СВ 2 20 км ясно +8.4 +1.6 62 +7 +7 тепло 1021.7 995.1
21 20.03 штиль 0 20 км ясно +3.1 +1.4 89 +2 +2 тепло 1022.2 995.0
00 21.03 штиль 0 20 км ясно +2.2 +1.3 94 +1 +1 по сезону 1022.9 995.6
03 21.03 Ю 1 10 км ясно +2.1 +2.0 99 0 0 по сезону 1023.8 996.5 +1.3
06 21.03 ЮЗ 2 20 км ясно +8.2 +3.6 73 +6 +11 тепло 1024.4 997.7
09 21.03 З 4 20 км 10/8 600 м
[Sc Ac As]
+9.8 +3.5 65 +7 +8 тепло 1024.7 998.1
12 21.03 З 5 20 км 9/9 600 м
[Sc]
+12.3 +2.0 49 +10 +11 тепло 1023.8 997.4
15 21.03 З 3 20 км 3/3 1000 м
[Sc]
+11.1 +1.0 50 +10 +10 тепло 1024.0 997.6 +12.9
18 21.03 З 2 20 км 9/4 1000 м
[Sc Ac trans]
+8.3 +0.5 58 +7 +7 тепло 1025.6 998.9
21 21.03 З 3 20 км 10/3 1000 м
[Sc Ac As]
+6.7 +3.3 79 +4 +4 тепло 1026.0 999.1
00 22.03 З 2 20 км 9/6 1000 м
[Sc Ac trans]
+5.7 +3.5 86 +3 +3 тепло 1025.6 998.6
03 22.03 ЮЗ 3 20 км 10/8 1000 м
[Sc Ac As]
+6.1 +3.1 81 +3 +3 по сезону 1024.8 997.9 +5.7
06 22.03 ЮЗ 4 20 км 8/3 1000 м
[Sc Ac trans]
+8.5 +0.1 55 +6 +7 тепло 1024.6 997.9
09 22.03 З 5
{10}
20 км 6/4 1000 м
[Sc Ac trans]
+11.1 -1.1 43 +9 +12 тепло 1023.5 997.0
12 22.03 З 4
{11}
20 км 9/4 1000 м
[Sc Ac trans Ci sp]
+11.0 +0.1 47 +9 +11 по сезону 1022.2 995.7
15 22.03 ЮЗ 5-10
{10}
20 км {ливн. осадки} 10/5 600 м
[Cb cap Ac As]
+9.1 -1.0 49 +6 +6 по сезону 1021.6 995.0 +12.3 0.3
18 22.03 ЮЗ 4
{11}
20 км {ливн. осадки} 10/6 1000 м
[Sc Ac As]
+7.6 -1.1 54 +5 +5 по сезону 1021.7 994.9
21 22.03 Ю 4
{13}
20 км 10/0
[Ac trans Ci sp]
+6.9 -1.1 57 +4 +4 по сезону 1018.5 991.8
00 23.03 Ю 5
{12}
20 км 10/0
[Ac trans Ci sp]
+7.2 -2.7 49 +4 +4 тепло 1015.6 989.0
03 23.03 З 3
{13}
20 км 10/5 1000 м
[Sc Ac trans Ci sp]
+6.2 -0.7 61 +3 +3 по сезону 1016.0 989.3 +6.2
06 23.03 штиль 0 1000 м ливневой снег [диам. отлож. мокр. снега 11 мм] 10/8 300 м
[Cb cap Ac und]
+0.3 +0.3 100 -1 -1 по сезону 1017.5 990.2 +0.1
09 23.03 Ю 2 10 км слаб. ливневой снег 10/5 600 м
[Cb cap Ac und]
+1.2 -0.2 90 -2 -1 холодно 1016.6 989.4
12 23.03 Ю 4 10 км в посл. час ливневой снег 10/5 600 м
[Cb cap Ac und]
+1.3 -0.8 86 -4 -3 очень
холодно
1015.8 988.6
15 23.03 Ю 2 20 км 9/5 600 м
[Sc diur, vesp Ac As Ci sp]
+1.4 -1.2 83 -2 -2 холодно 1016.5 989.3 +6.1 19
18 23.03 Ю 1 20 км 9/5 600 м
[Sc diur, vesp Ac As]
+0.9 -0.3 92 -1 -1 прохладно 1017.6 990.4
21 23.03 Ю 2 20 км 6/3 1000 м
[Sc diur, vesp Ac As Ci sp]
+0.5 -0.7 92 -3 -3 прохладно 1018.2 990.9
00 24.03 Ю 1 20 км 3/0
[Ac As]
-0.9 -1.5 96 -3 -3 прохладно 1018.1 990.6
03 24.03 Ю 2 20 км 3/0
[Ac As Ci sp]
-1.9 -3.2 91 -6 -6 холодно 1018.6 991.0 -2.0 3
06 24.03 ЮЗ 2 20 км 9/3 1000 м
[Sc Ac trans Ci sp]
+1.6 -2.1 76 -2 +1 прохладно 1019.3 992.0

 

Местоположение метеостанции Майкоп (Адыгея, Россия): широта 44.62 долгота 40.08 высота над уровнем моря 216 м.

В архиве по умолчанию представлена погода в Майкопе за последнюю неделю. Архивные данные за месяц целиком и за предыдущие месяцы, начиная с января 2011 года, Вы можете получить, выбрав интересующий диапазон дат из раскрывающегося списка и нажав кнопку "Ввод!".


*Определитесь, кто Вы:
робот инопланетянин человек

Внимание! Время в таблицах - всемирное. Для получения местного времени необходимо прибавить поправку, которая равна 3 ч.

Смотрите также архив погоды в соседних городах и на ближайших метеорологических станциях:

Погода в Шунтуке (Адыгея, Россия) (17 км)
Погода в Белореченске (Краснодарский край, Россия) (20 км)
Погода в Дондуковской (Адыгея, Россия) (34 км)
Погода в Лабинске (Краснодарский край, Россия) (53 км)
Погода в Даховской (Адыгея, Россия) (53 км)
Погода в Гузерипле (Адыгея, Россия) (69 км)
Погода в Усть-Лабинске (Краснодарский край, Россия) (73 км)
Погода в Горном (Краснодарский край, Россия) (75 км)
Погода в Горячем Ключе (Краснодарский край, Россия) (78 км)
Погода в Псебае (Краснодарский край, Россия) (78 км)

Пояснения к столбцам:

Ветер - указаны скорость ветра в м/с - средняя за 10 мин, порывы в срок и между сроками (в фигурных скобках) и направление, откуда дует ветер: С - северный, СВ - северо-восточный, В - восточный, ЮВ - юго-восточный, Ю - южный, ЮЗ - юго-западный, З - западный, СЗ - северо-западный.
Видимость - горизонтальная дальность видимости в метрах или километрах. При видимости от 1 до 10 км при отсутствии осадков обычно наблюдается дымка, при ухудшении видимости до 1 км и менее - туман. В сухую погоду видимость может ухудшаться дымом, пылью или мглою.
Явления - указаны атмосферные явления, наблюдавшиеся в срок или в последний час перед сроком; фигурными скобками обозначены явления, наблюдавшиеся между сроками (за 1-3 часа до срока); квадратными скобками обозначены град или гололедные отложения с указанием их диаметра в мм.
Облачность - указаны через наклонную черту общая и нижняя облачность в баллах и высота нижней границы облаков в метрах; квадратными скобками обозначены формы облаков: Ci - перистые, Cs - перисто-слоистые, Cc - перисто-кучевые, Ac - высококучевые, As - высокослоистые, Sc - слоисто-кучевые, Ns - слоисто-дождевые, Cu - кучевые, Cb - кучево-дождевые. Подробнее классификацию облаков см. в Атласе облаков (PDF).
T - Температура воздуха - температура, измеренная на высоте 2 м над землей.
Td - Температура точки росы - температура, при понижении до которой содержащийся в воздухе водяной пар достигнет насыщения.
f - Относительная влажность воздуха - влажноcть воздуха, измеренная на высоте 2 м над землей.
Te - Эффективная температура - температура, которую ощущает одетый по сезону человек в тени. Характеристика душности погоды. При расчете учитывается влияние влажности воздуха и скорости ветра на теплоощущения человека.
Tes - Эффективная температура на солнце - температура, которую ощущает человек, с поправкой на солнечный нагрев. Характеристика знойности погоды. Зависит от высоты солнца над горизонтом, облачности и скорости ветра. Ночью, в пасмурную погоду, а также при ветре 12 м/с и более поправка равна нулю.
P - Атмосферное давление - приведенное к уровню моря атмосферное давление.
Po - Атмосферное давление - измеренное на уровне метеостанции атмосферное давление.
Tmin - Минимальная температура - минимум температуры воздуха на высоте 2 м над землей.
Tmax - Максимальная температура - максимум температуры воздуха на высоте 2 м над землей.
R - Количество осадков - Количество выпавших осадков за период времени, мм. При наведении курсора мыши на число - период времени, за который выпало указанное количество осадков.
R24 - Количество осадков - Количество выпавших осадков за 24 часа, мм.
S - Снежный покров - Высота снежного покрова, см. При наведении курсора мыши на число - состояние снежного покрова и степень покрытия местности в баллах.